CW7364 Weather Reports


Display with metric or nautical units.
time (UTC)temp
F
wind
direction
speed
MPH
gust
MPH
rain 1hr
in
rain 24hr
in
rain mn
in
humidity
%
barometer
mb
20260901003557 94 113 6.0 9.0 0.00 0.00 0.00 39 1012.5
20260901002517 95 158 5.0 9.0 0.00 0.00 0.00 39 1012.7
20260901001537 96 135 5.0 10.0 0.00 0.00 0.00 38 1012.6
20260901000516 96 158 5.0 12.0 0.00 0.00 0.00 37 1012.6
20260831235517 97 135 4.0 7.0 0.00 0.00 0.00 37 1012.6
20260831234517 97 135 6.0 11.0 0.00 0.00 0.00 36 1012.6
20260831233517 97 135 5.0 10.0 0.00 0.00 0.00 36 1012.6
20260831232517 97 158 6.0 12.0 0.00 0.00 0.00 37 1012.6
20260831231516 97 180 5.0 13.0 0.00 0.00 0.00 36 1012.6
20260831230516 97 158 6.0 11.0 0.00 0.00 0.00 36 1012.8
20260831225516 96 135 5.0 10.0 0.00 0.00 0.00 37 1012.6
20260831224516 98 113 9.0 14.0 0.00 0.00 0.00 36 1012.7
20260831223516 98 113 9.0 14.0 0.00 0.00 0.00 36 1012.8
20260831222516 96 158 4.0 8.0 0.00 0.00 0.00 37 1012.8
20260831221516 97 158 6.0 12.0 0.00 0.00 0.00 37 1012.9
20260831220516 97 135 7.0 11.0 0.00 0.00 0.00 37 1013.0
20260831215517 98 135 7.0 14.0 0.00 0.00 0.00 36 1013.2
20260831214536 98 113 9.0 13.0 0.00 0.00 0.00 37 1013.2
20260831213516 96 135 3.0 8.0 0.00 0.00 0.00 38 1013.3
20260831212516 96 135 7.0 11.0 0.00 0.00 0.00 37 1013.4
20260831211516 98 135 8.0 14.0 0.00 0.00 0.00 36 1013.4
20260831210516 97 135 8.0 14.0 0.00 0.00 0.00 37 1013.5
20260831205516 96 135 6.0 14.0 0.00 0.00 0.00 38 1013.7
20260831204516 97 158 7.0 11.0 0.00 0.00 0.00 37 1013.9
20260831203516 97 180 6.0 11.0 0.00 0.00 0.00 37 1014.1
20260831202516 97 135 8.0 12.0 0.00 0.00 0.00 38 1014.2
20260831201516 97 135 7.0 11.0 0.00 0.00 0.00 37 1014.3
20260831200516 97 180 7.0 12.0 0.00 0.00 0.00 35 1014.3
20260831195516 99 135 7.0 12.0 0.00 0.00 0.00 33 1014.4
20260831194516 98 135 7.0 13.0 0.00 0.00 0.00 34 1014.5
20260831193516 99 180 5.0 11.0 0.00 0.00 0.00 33 1014.7
20260831192516 98 180 7.0 13.0 0.00 0.00 0.00 35 1014.7
20260831191516 97 180 7.0 12.0 0.00 0.00 0.00 35 1014.9
20260831190516 100 135 9.0 16.0 0.00 0.00 0.00 32 1014.9
20260831185515 98 180 5.0 12.0 0.00 0.00 0.00 34 1015.0
20260831184535 97 180 6.0 12.0 0.00 0.00 0.00 36 1015.1
20260831183516 97 180 6.0 12.0 0.00 0.00 0.00 37 1015.2
20260831182516 99 135 9.0 20.0 0.00 0.00 0.00 35 1015.5
20260831181515 99 135 9.0 18.0 0.00 0.00 0.00 34 1015.5
20260831180535 99 158 5.0 10.0 0.00 0.00 0.00 35 1015.7
20260831175535 99 180 5.0 9.0 0.00 0.00 0.00 36 1016.0
20260831174535 99 225 5.0 10.0 0.00 0.00 0.00 36 1016.1
20260831173515 98 180 6.0 11.0 0.00 0.00 0.00 36 1016.2
20260831172515 98 158 5.0 12.0 0.00 0.00 0.00 37 1016.3
20260831171515 98 203 6.0 14.0 0.00 0.00 0.00 37 1016.4
20260831170535 97 180 6.0 12.0 0.00 0.00 0.00 38 1016.5
20260831165517 96 225 4.0 12.0 0.00 0.00 0.00 40 1016.5
20260831164517 96 180 4.0 11.0 0.00 0.00 0.00 40 1016.6
20260831163517 95 180 8.0 13.0 0.00 0.00 0.00 40 1016.6
20260831162537 94 203 5.0 10.0 0.00 0.00 0.00 41 1016.7
20260831161517 94 180 8.0 14.0 0.00 0.00 0.00 42 1016.7
20260831160537 94 225 4.0 15.0 0.00 0.00 0.00 44 1016.8
20260831155517 93 203 6.0 9.0 0.00 0.00 0.00 46 1016.8
20260831154537 93 180 6.0 11.0 0.00 0.00 0.00 46 1016.7
20260831153517 92 203 4.0 8.0 0.00 0.00 0.00 48 1016.5
20260831152517 92 180 6.0 10.0 0.00 0.00 0.00 48 1016.6
20260831151517 91 225 3.0 7.0 0.00 0.00 0.00 49 1016.5
20260831150517 90 225 3.0 7.0 0.00 0.00 0.00 50 1016.4
20260831145517 89 180 4.0 10.0 0.00 0.00 0.00 54 1016.5
20260831144517 88 180 5.0 8.0 0.00 0.00 0.00 56 1016.5
20260831143517 87 180 4.0 8.0 0.00 0.00 0.00 60 1016.5
20260831142516 85 180 5.0 9.0 0.00 0.00 0.00 63 1016.4
20260831141517 85 180 4.0 7.0 0.00 0.00 0.00 65 1016.4
20260831140517 84 158 3.0 6.0 0.00 0.00 0.00 66 1016.4
20260831135517 83 158 3.0 5.0 0.00 0.00 0.00 68 1016.3
20260831134517 82 158 3.0 6.0 0.00 0.00 0.00 69 1016.1
20260831133517 81 135 3.0 5.0 0.00 0.00 0.00 70 1016.0
20260831132517 80 158 3.0 6.0 0.00 0.00 0.00 71 1016.0
20260831131516 79 158 2.0 5.0 0.00 0.00 0.00 72 1016.0
20260831130517 78 0.0 3.0 0.00 0.00 0.00 74 1015.7
20260831125516 77 0.0 0.0 0.00 0.00 0.00 76 1015.4
20260831124516 75 0.0 0.0 0.00 0.00 0.00 78 1015.3
20260831123557 75 0.0 0.0 0.00 0.00 0.00 78 1015.0
20260831122516 74 0.0 0.0 0.00 0.00 0.00 79 1014.8
20260831121516 74 0.0 0.0 0.00 0.00 0.00 78 1014.6
20260831120516 74 158 2.0 4.0 0.00 0.00 0.00 76 1014.5
20260831115536 75 0.0 3.0 0.00 0.00 0.00 75 1014.4
20260831114536 76 135 2.0 3.0 0.00 0.00 0.00 75 1014.5
20260831113536 76 158 2.0 4.0 0.00 0.00 0.00 74 1014.5
20260831112516 76 135 2.0 3.0 0.00 0.00 0.00 74 1014.4
20260831111516 76 0.0 0.0 0.00 0.00 0.00 75 1014.3
20260831110536 76 0.0 0.0 0.00 0.00 0.00 74 1014.2
20260831105516 76 0.0 0.0 0.00 0.00 0.00 74 1014.1
20260831104516 75 0.0 1.0 0.00 0.00 0.00 74 1014.1
20260831103516 75 0.0 1.0 0.00 0.00 0.00 74 1014.0
20260831102556 75 135 1.0 1.0 0.00 0.00 0.00 74 1014.0
20260831101516 74 135 1.0 2.0 0.00 0.00 0.00 74 1014.1
20260831100516 74 135 1.0 2.0 0.00 0.00 0.00 72 1014.2
20260831095516 75 0.0 2.0 0.00 0.00 0.00 72 1014.1
20260831094516 75 0.0 0.0 0.00 0.00 0.00 71 1014.0
20260831093516 76 0.0 3.0 0.00 0.00 0.00 69 1014.0
20260831092515 76 0.0 0.0 0.00 0.00 0.00 69 1013.9
20260831091516 76 0.0 0.0 0.00 0.00 0.00 68 1013.9
20260831090515 76 0.0 0.0 0.00 0.00 0.00 67 1013.8
20260831085515 76 0.0 0.0 0.00 0.00 0.00 67 1013.8
20260831084515 76 0.0 0.0 0.00 0.00 0.00 67 1013.9
20260831083515 76 0.0 0.0 0.00 0.00 0.00 66 1013.9
20260831082516 77 0.0 0.0 0.00 0.00 0.00 65 1013.9
20260831081535 78 0.0 0.0 0.00 0.00 0.00 63 1013.9
20260831080535 79 0.0 0.0 0.00 0.00 0.00 63 1014.0
20260831075515 79 135 1.0 3.0 0.00 0.00 0.00 63 1013.9
20260831074515 79 135 1.0 2.0 0.00 0.00 0.00 62 1013.9
20260831073515 79 135 1.0 2.0 0.00 0.00 0.00 62 1013.8
20260831072515 79 135 1.0 2.0 0.00 0.00 0.00 61 1013.7
20260831071517 79 135 1.0 2.0 0.00 0.00 0.00 61 1013.7
20260831070517 80 135 1.0 3.0 0.00 0.00 0.00 61 1013.7
20260831065537 80 0.0 2.0 0.00 0.00 0.00 60 1013.7
20260831064517 80 0.0 2.0 0.00 0.00 0.00 59 1013.8
20260831063517 80 135 1.0 2.0 0.00 0.00 0.00 59 1013.8
20260831062517 80 135 1.0 2.0 0.00 0.00 0.00 59 1013.7
20260831061517 80 0.0 2.0 0.00 0.00 0.00 59 1013.8
20260831060517 80 0.0 2.0 0.00 0.00 0.00 58 1013.8
20260831055517 80 0.0 0.0 0.00 0.00 0.00 58 1013.8
20260831054517 81 0.0 0.0 0.00 0.00 0.00 57 1013.6
20260831053517 81 0.0 0.0 0.00 0.00 0.00 57 1013.6
20260831052517 81 0.0 0.0 0.00 0.00 0.00 56 1013.7
20260831051517 82 0.0 0.0 0.00 0.00 0.00 55 1013.6
20260831050517 83 0.0 0.0 0.00 0.00 0.00 54 1013.6
20260831045515 83 135 1.0 2.0 0.00 0.00 0.00 54 1013.5
20260831044516 83 0.0 1.0 0.00 0.00 0.00 53 1013.5
20260831043515 83 135 2.0 3.0 0.00 0.00 0.00 53 1013.5
20260831042535 84 113 2.0 3.0 0.00 0.00 0.00 52 1013.5
20260831041515 84 113 1.0 2.0 0.00 0.00 0.00 52 1013.5
20260831040515 84 113 1.0 2.0 0.00 0.00 0.00 52 1013.4
20260831035515 84 113 2.0 3.0 0.00 0.00 0.00 51 1013.4
20260831034515 84 113 1.0 2.0 0.00 0.00 0.00 51 1013.4
20260831033517 84 113 2.0 3.0 0.00 0.00 0.00 50 1013.3
20260831032517 85 135 1.0 2.0 0.00 0.00 0.00 49 1013.3
20260831031517 85 0.0 0.0 0.00 0.00 0.00 49 1013.2
20260831030537 85 0.0 1.0 0.00 0.00 0.00 49 1013.1
20260831025517 86 135 1.0 2.0 0.00 0.00 0.00 48 1013.0
20260831024517 86 135 2.0 3.0 0.00 0.00 0.00 48 1012.8
20260831023515 86 135 3.0 4.0 0.00 0.00 0.00 47 1012.7
20260831022517 87 135 2.0 4.0 0.00 0.00 0.00 46 1012.5
20260831021517 87 135 3.0 3.0 0.00 0.00 0.00 45 1012.4
20260831020517 88 135 3.0 4.0 0.00 0.00 0.00 44 1012.2
20260831015517 88 135 3.0 5.0 0.00 0.00 0.00 43 1012.0
20260831014517 89 135 3.0 5.0 0.00 0.00 0.00 43 1011.9
20260831013517 89 135 3.0 5.0 0.00 0.00 0.00 42 1011.8
20260831012517 90 113 3.0 5.0 0.00 0.00 0.00 41 1011.6
20260831011517 91 135 3.0 4.0 0.00 0.00 0.00 40 1011.5
20260831010517 92 135 3.0 6.0 0.00 0.00 0.00 39 1011.6
20260831005517 94 135 5.0 8.0 0.00 0.00 0.00 38 1011.5
20260831004517 95 135 6.0 9.0 0.00 0.00 0.00 37 1011.5